Weather Roundup
Issued by NWS Springfield, MO

Home | Current Version | Previous Version | Text Only | Print | Product List | Glossary On
Versions: 1 2 3 4 5 6 7 8 9 10 11 12 13 14 15 16 17 18 19 20 21 22 23 24 25 26 27 28 29 30 31 32 33 34 35 36 37 38 39 40 41 42 43 44 45 46 47 48 49 50
000
NZUS99 KSGF 261807
HRRSGF

HOURLY WEATHER
NATIONAL WEATHER SERVICE SPRINGFIELD MO
1200 PM CST SUN FEB 26 2017

......SGF CWA......

CITY           SKY/WX    TMP DP  RH WIND       PRES   REMARKS
SPRINGFIELD    MIX PCPN  36  34  92 SE9       30.07F WCI  29
6HR MIN TEMP:  32; 6HR MAX TEMP:  40; 6HR PCP:  0.05;

JOPLIN         LGT RAIN  40  38  93 SE7       30.05F
6HR MIN TEMP:  35; 6HR MAX TEMP:  41; 6HR PCP:  0.07;

WEST PLAINS    CLOUDY    45  21  38 S9        30.12F
6HR MIN TEMP:  29; 6HR MAX TEMP:  45;

ROLLA          CLOUDY    44  17  33 S16       30.08F
6HR MIN TEMP:  31; 6HR MAX TEMP:  44; 6HR PCP: TRACE;

OSAGE BEACH    CLOUDY    45  19  35 S8        30.08F
BRANSON        CLOUDY    46  23  39 SE7       30.08F

......SURROUNDING SGF CWA......

CITY           SKY/WX    TMP DP  RH WIND       PRES   REMARKS
CHANUTE        CLOUDY    47  32  56 S13G23    29.99F
PARSONS        CLOUDY    45  34  65 S7        30.01F
COFFEYVILLE    CLOUDY    45  32  60 SE5       30.01S
EMPORIA        SUNNY     46  24  42 S10       29.97F
GROVE OK       CLOUDY    46  32  57 E6        30.03F
ROGERS AR      CLOUDY    44  29  55 E10       30.02F
SILOAM SPRINGS CLOUDY    46  25  42 SE9G16    30.01F
HARRISON AR    CLOUDY    47  22  37 S10       30.07F
NEAR YELLVILLE PTSUNNY   48  21  34 S13       30.08F

......KANSAS AND MISSOURI......

CITY           SKY/WX    TMP DP  RH WIND       PRES   REMARKS
KANSAS CTY INT MOSUNNY   44  29  55 S8        30.01F
DOWNTOWN KC    CLOUDY    44  34  67 CALM      30.02F
COLUMBIA       CLOUDY    43  19  38 S10       30.07F
SEDALIA        CLOUDY    45  21  38 S8        30.06F
ST JOSEPH      SUNNY     49  32  52 SW15G22   29.99F
ST LOUIS       CLOUDY    43  14  31 S12G18    30.13F
SPIRIT OF STL  CLOUDY    43  15  32 S9        30.12F
KIRKSVILLE     SUNNY     48  26  42 SW18G30   30.00F
WICHITA        PTSUNNY   46  25  43 VRB3      29.95F
TOPEKA         CLOUDY    47  25  42 S7        29.99F
OLATHE         MOSUNNY   44  28  53 SE10      30.01F

......TENNESSEE......

CITY           SKY/WX    TMP DP  RH WIND       PRES   REMARKS
MEMPHIS        MOSUNNY   54  18  24 SE8       30.15F
NASHVILLE      MOSUNNY   50  15  24 E9        30.23F

......ARKANSAS.......

CITY           SKY/WX    TMP DP  RH WIND       PRES   REMARKS
FAYETTEVILLE   CLOUDY    48  24  39 S8        30.03F
FT SMITH       CLOUDY    52  23  32 SE13      30.04F
LITTLE ROCK    MOSUNNY   53  27  36 SE13      30.14F

......OKLAHOMA.......

CITY           SKY/WX    TMP DP  RH WIND       PRES   REMARKS
TULSA          PTSUNNY   51  28  41 SE13      29.96F
PONCA CITY     CLOUDY    49  25  39 VRB7      29.95F
MCALESTER      PTSUNNY   56  32  40 S12G26    29.98F
OKLAHOMA CITY  PTSUNNY   55  31  39 SW18G24   29.90F

......IOWA............

CITY           SKY/WX    TMP DP  RH WIND       PRES   REMARKS
DES MOINES     MOSUNNY   46  26  45 W26       29.92S
QUAD CITIES    SUNNY     46  23  40 SW20G29   29.96F

......ILLINOIS........

CITY           SKY/WX    TMP DP  RH WIND       PRES   REMARKS
QUINCY         MOSUNNY   46  20  35 SW14      30.03F
CHICAGO        PTSUNNY   43  19  38 SW21G35   29.94F



USA.gov is the U.S. government's official web portal to all federal, state and local government web resources and services.